When you browse on this site, cookies collect data to enhance your experience and personalize the content and advertising you see.
Visit our Privacy Policy to learn more. By continuing to use the site, you agree to this use of cookies and data.
  • In France
  • List of Countries
  • For 7 days
  • Water Temperature
  • Weather Map
  • Weather Widgets
  • user-avatar
    Login

    Hourly Weather Newport

    Today, 23 August, Friday

    Time Temperature Precipitation Wind Pressure Humidity
    00:00 +16°C° 0 mm 1 mps 765 mmHg 90%
    01:00 +15°C° 0 mm 1 mps 765 mmHg 90%
    02:00 +14°C° 0 mm 0 mps 765 mmHg 90%
    03:00 +14°C° 0 mm 0 mps 765 mmHg 90%
    04:00 +15°C° 0 mm 0 mps 765 mmHg 90%
    05:00 +16°C° 0 mm 1 mps 764 mmHg 90%
    06:00 +16°C° 0 mm 1 mps 764 mmHg 90%
    07:00 +18°C° 0 mm 1 mps 765 mmHg 85%
    08:00 +20°C° 0 mm 1 mps 765 mmHg 79%
    09:00 +20°C° 0 mm 2 mps 765 mmHg 73%
    10:00 +21°C° 0 mm 2 mps 765 mmHg 67%
    11:00 +23°C° 0 mm 2 mps 764 mmHg 62%
    12:00 +22°C° 0 mm 3 mps 764 mmHg 56%
    13:00 +22°C° 0 mm 3 mps 764 mmHg 55%
    14:00 +22°C° 0 mm 3 mps 764 mmHg 54%
    15:00 +22°C° 0 mm 3 mps 763 mmHg 52%
    16:00 +21°C° 0 mm 3 mps 763 mmHg 57%
    17:00 +21°C° 0 mm 2 mps 763 mmHg 61%
    18:00 +20°C° 0 mm 2 mps 762 mmHg 65%
    19:00 +19°C° 0 mm 3 mps 762 mmHg 65%
    20:00 +18°C° 0 mm 3 mps 762 mmHg 64%
    21:00 +17°C° 0 mm 3 mps 763 mmHg 64%
    22:00 +17°C° 0 mm 3 mps 762 mmHg 63%
    23:00 +17°C° 0 mm 3 mps 762 mmHg 63%

    Tomorrow, 24 August, Saturday

    Time Temperature Precipitation Wind Pressure Humidity
    00:00 +17°C° 0 mm 3 mps 761 mmHg 62%
    01:00 +17°C° 0 mm 3 mps 761 mmHg 66%
    02:00 +16°C° 0 mm 3 mps 761 mmHg 69%
    03:00 +16°C° 0 mm 3 mps 761 mmHg 72%
    04:00 +16°C° 0 mm 3 mps 760 mmHg 74%
    05:00 +17°C° 0 mm 3 mps 760 mmHg 75%
    06:00 +17°C° 0 mm 4 mps 760 mmHg 76%
    07:00 +18°C° 0 mm 4 mps 760 mmHg 73%
    08:00 +20°C° 0 mm 4 mps 760 mmHg 69%
    09:00 +22°C° 0 mm 4 mps 760 mmHg 66%
    10:00 +23°C° 0 mm 4 mps 760 mmHg 63%
    11:00 +23°C° 0 mm 5 mps 759 mmHg 60%
    12:00 +25°C° 0 mm 5 mps 759 mmHg 58%
    13:00 +25°C° 0 mm 5 mps 759 mmHg 57%
    14:00 +25°C° 0 mm 5 mps 759 mmHg 57%
    15:00 +25°C° 0 mm 4 mps 759 mmHg 56%
    16:00 +23°C° 0 mm 4 mps 758 mmHg 60%
    17:00 +22°C° 0 mm 4 mps 758 mmHg 64%
    18:00 +22°C° 0 mm 4 mps 757 mmHg 68%
    19:00 +21°C° 0 mm 4 mps 758 mmHg 70%
    20:00 +20°C° 0 mm 4 mps 758 mmHg 72%
    21:00 +19°C° 0 mm 4 mps 758 mmHg 73%
    22:00 +19°C° 0 mm 4 mps 758 mmHg 75%
    23:00 +19°C° 0 mm 4 mps 758 mmHg 77%

    Day after tomorrow, 25 August, Sunday

    Time Temperature Precipitation Wind Pressure Humidity
    00:00 +18°C° 0 mm 4 mps 757 mmHg 79%
    01:00 +18°C° 0 mm 4 mps 757 mmHg 79%
    02:00 +18°C° 0 mm 4 mps 757 mmHg 79%
    03:00 +18°C° 0 mm 3 mps 757 mmHg 79%
    04:00 +19°C° 0 mm 4 mps 757 mmHg 78%
    05:00 +19°C° 0 mm 4 mps 757 mmHg 78%
    06:00 +19°C° 0 mm 4 mps 757 mmHg 78%
    07:00 +20°C° 0 mm 4 mps 757 mmHg 72%
    08:00 +22°C° 0 mm 4 mps 757 mmHg 65%
    09:00 +25°C° 0 mm 4 mps 758 mmHg 59%
    10:00 +25°C° 0 mm 4 mps 758 mmHg 57%
    11:00 +26°C° 0 mm 4 mps 757 mmHg 54%
    12:00 +26°C° 0 mm 4 mps 757 mmHg 52%
    13:00 +26°C° 0 mm 3 mps 757 mmHg 54%
    14:00 +25°C° 0 mm 3 mps 758 mmHg 57%
    15:00 +25°C° 0 mm 3 mps 758 mmHg 59%
    16:00 +24°C° 0 mm 3 mps 758 mmHg 65%
    17:00 +22°C° 0 mm 3 mps 758 mmHg 71%
    18:00 +21°C° 0 mm 3 mps 758 mmHg 76%
    19:00 +20°C° 0 mm 3 mps 758 mmHg 81%
    20:00 +19°C° 0 mm 3 mps 758 mmHg 85%
    21:00 +18°C° 0 mm 2 mps 759 mmHg 89%
    22:00 +17°C° 0 mm 2 mps 759 mmHg 89%
    23:00 +17°C° 0 mm 2 mps 759 mmHg 90%

    26 August, Monday

    Time Temperature Precipitation Wind Pressure Humidity
    00:00 +16°C° 0 mm 1 mps 759 mmHg 90%
    01:00 +16°C° 0 mm 1 mps 759 mmHg 90%
    02:00 +16°C° 0 mm 1 mps 759 mmHg 90%
    03:00 +16°C° 0 mm 1 mps 758 mmHg 90%
    04:00 +18°C° 0 mm 1 mps 758 mmHg 88%
    05:00 +18°C° 0 mm 1 mps 759 mmHg 87%
    06:00 +18°C° 0 mm 1 mps 759 mmHg 86%
    07:00 +20°C° 0 mm 1 mps 759 mmHg 80%
    08:00 +21°C° 0 mm 1 mps 759 mmHg 73%
    09:00 +23°C° 0 mm 1 mps 759 mmHg 67%
    10:00 +24°C° 0 mm 2 mps 759 mmHg 65%
    11:00 +24°C° 0 mm 2 mps 759 mmHg 62%
    12:00 +25°C° 0 mm 3 mps 759 mmHg 60%
    13:00 +25°C° 0 mm 3 mps 759 mmHg 61%
    14:00 +25°C° 0 mm 3 mps 758 mmHg 62%
    15:00 +24°C° 0 mm 3 mps 758 mmHg 63%
    16:00 +22°C° 0.2 mm 4 mps 758 mmHg 68%
    17:00 +21°C° 0.2 mm 4 mps 758 mmHg 74%
    18:00 +20°C° 0.2 mm 5 mps 757 mmHg 79%
    19:00 +20°C° 0.7 mm 4 mps 758 mmHg 83%
    20:00 +19°C° 0.7 mm 3 mps 758 mmHg 86%
    21:00 +18°C° 0.7 mm 2 mps 758 mmHg 90%
    22:00 +18°C° 1.7 mm 2 mps 758 mmHg 92%
    23:00 +18°C° 1.7 mm 2 mps 757 mmHg 94%

    27 August, Tuesday

    Time Temperature Precipitation Wind Pressure Humidity
    00:00 +18°C° 1.7 mm 3 mps 757 mmHg 95%
    01:00 +17°C° 0.7 mm 2 mps 757 mmHg 96%
    02:00 +17°C° 0.7 mm 2 mps 756 mmHg 96%
    03:00 +17°C° 0.7 mm 2 mps 756 mmHg 96%
    04:00 +17°C° 0.2 mm 3 mps 756 mmHg 94%
    05:00 +17°C° 0.2 mm 3 mps 756 mmHg 93%
    06:00 +17°C° 0.2 mm 4 mps 756 mmHg 91%
    07:00 +17°C° 0.1 mm 4 mps 756 mmHg 90%
    08:00 +17°C° 0.1 mm 4 mps 756 mmHg 88%
    09:00 +18°C° 0.1 mm 4 mps 756 mmHg 87%
    10:00 +19°C° 0.1 mm 5 mps 756 mmHg 82%
    11:00 +20°C° 0.1 mm 5 mps 756 mmHg 77%
    12:00 +21°C° 0.1 mm 5 mps 756 mmHg 72%
    13:00 +21°C° 0 mm 6 mps 756 mmHg 68%
    14:00 +22°C° 0 mm 7 mps 756 mmHg 64%
    15:00 +22°C° 0 mm 8 mps 756 mmHg 60%
    16:00 +21°C° 0 mm 8 mps 756 mmHg 66%
    17:00 +20°C° 0 mm 8 mps 756 mmHg 71%
    18:00 +18°C° 0 mm 8 mps 756 mmHg 76%
    19:00 +17°C° 0 mm 7 mps 757 mmHg 79%
    20:00 +17°C° 0 mm 7 mps 757 mmHg 81%
    21:00 +16°C° 0 mm 6 mps 757 mmHg 84%
    22:00 +16°C° 0 mm 6 mps 758 mmHg 86%
    23:00 +15°C° 0 mm 6 mps 758 mmHg 88%

    28 August, Wednesday

    Time Temperature Precipitation Wind Pressure Humidity
    00:00 +15°C° 0 mm 6 mps 758 mmHg 89%
    01:00 +15°C° 0 mm 6 mps 758 mmHg 90%
    02:00 +15°C° 0 mm 6 mps 758 mmHg 91%
    03:00 +15°C° 0 mm 7 mps 758 mmHg 92%
    04:00 +16°C° 0 mm 7 mps 758 mmHg 91%
    05:00 +16°C° 0 mm 7 mps 758 mmHg 91%
    06:00 +17°C° 0 mm 7 mps 758 mmHg 90%
    07:00 +17°C° 0 mm 7 mps 758 mmHg 87%
    08:00 +18°C° 0 mm 7 mps 759 mmHg 83%
    09:00 +18°C° 0 mm 7 mps 759 mmHg 80%
    10:00 +20°C° 0.1 mm 6 mps 759 mmHg 77%
    11:00 +20°C° 0.1 mm 6 mps 759 mmHg 74%
    12:00 +20°C° 0.1 mm 6 mps 759 mmHg 71%
    13:00 +20°C° 0 mm 6 mps 759 mmHg 70%
    14:00 +20°C° 0 mm 6 mps 759 mmHg 69%
    15:00 +20°C° 0 mm 5 mps 759 mmHg 68%
    16:00 +20°C° 0 mm 5 mps 759 mmHg 70%
    17:00 +19°C° 0 mm 5 mps 760 mmHg 72%
    18:00 +17°C° 0 mm 5 mps 760 mmHg 74%
    19:00 +17°C° 0 mm 4 mps 760 mmHg 74%
    20:00 +15°C° 0 mm 4 mps 760 mmHg 73%
    21:00 +13°C° 0 mm 3 mps 760 mmHg 73%
    22:00 +13°C° 0 mm 3 mps 760 mmHg 73%
    23:00 +13°C° 0 mm 2 mps 760 mmHg 74%
    Show more